Vorticity
nan nan nan nan nan nan nan nan nan nan nan nan nan nan nan nan nan nan nan nan nan nan nan nan nan nan nan nan nan nan nan nan nan nan nan nan nan nan nan nan nan nan nan nan nan nan nan nan nan nan nan nan nan nan nan nan nan nan nan nan nan nan nan nan nan nan nan nan nan
nan 6 7 7 5 4 6 9 10 10 9 10 11 11 9 8 8 8 8 7 7 9 9 10 13 14 16 13 9 7 7 9 9 8 8 7 8 8 7 7 8 8 8 7 5 4 6 6 5 6 7 7 8 8 10 10 10 9 10 8 7 8 9 7 7 7 7 7 nan
nan 5 6 7 5 4 5 8 11 11 9 7 10 11 10 8 9 10 10 9 8 9 9 11 13 14 14 11 7 8 9 9 9 7 7 8 8 8 7 8 9 8 7 6 6 6 8 7 5 6 7 8 9 8 8 9 9 9 8 6 6 8 9 7 7 6 7 8 nan
nan 6 7 8 7 4 2 7 12 10 6 5 8 10 9 8 9 10 11 10 8 9 10 12 13 12 12 11 9 8 10 10 9 7 7 8 9 8 7 8 8 7 6 7 8 8 8 6 5 7 9 10 7 7 7 10 10 9 8 7 7 8 9 8 8 7 7 8 nan
nan 6 7 10 9 4 2 8 11 7 4 5 9 9 7 7 8 10 12 11 9 9 11 13 12 12 12 13 11 9 9 10 8 6 7 9 8 8 8 8 7 6 6 8 9 8 7 4 4 8 10 8 6 7 9 11 9 9 8 9 9 9 9 9 7 8 8 8 nan
nan 7 7 10 10 4 4 10 12 6 3 7 10 8 6 7 9 10 11 9 9 11 12 11 10 11 11 12 11 8 8 8 7 7 9 9 8 9 9 8 7 6 7 8 9 7 6 3 4 8 9 7 7 9 12 11 9 9 9 9 9 9 10 9 8 9 10 11 nan
nan 8 7 9 8 5 5 9 10 7 6 10 12 9 5 6 10 11 8 7 8 10 10 9 9 10 10 10 9 8 7 7 8 9 9 8 9 9 9 8 7 7 7 8 7 6 5 3 5 7 8 7 7 10 11 11 10 10 9 7 7 8 10 9 8 10 12 12 nan
nan 9 8 9 9 7 7 7 7 6 6 10 14 12 7 7 9 8 5 5 8 9 9 10 13 12 10 9 8 8 8 7 7 8 8 10 10 9 8 8 8 7 7 7 7 6 4 3 6 8 7 6 8 10 12 12 11 10 8 6 5 7 9 10 11 12 12 9 nan
nan 10 9 10 10 9 8 8 7 6 6 10 12 11 8 7 8 5 3 5 9 10 9 12 15 13 11 8 8 7 7 8 8 7 8 10 10 8 7 8 9 7 6 7 9 8 4 4 8 9 8 8 10 12 13 12 10 8 6 4 5 7 9 11 12 12 11 8 nan
nan 10 9 10 11 9 8 9 9 8 7 9 11 9 9 7 6 4 2 6 11 11 9 12 15 13 11 8 6 6 7 8 9 9 9 9 10 8 7 8 9 8 6 7 9 8 5 6 9 9 9 10 13 13 13 11 9 6 4 4 8 8 8 9 11 11 10 9 nan
nan 8 8 10 11 8 8 8 8 8 7 9 11 9 9 7 5 4 4 9 13 12 10 12 14 11 9 7 7 7 7 8 10 11 10 9 9 8 8 9 9 9 7 7 7 7 7 9 11 11 8 9 11 11 11 11 9 6 4 6 9 9 7 7 8 9 9 10 nan
nan 8 8 9 10 8 7 6 7 9 9 10 10 9 8 8 8 7 7 11 12 10 8 12 13 9 6 7 9 8 8 9 10 10 10 9 9 9 8 9 10 9 8 7 6 7 9 12 13 11 8 7 7 10 12 12 8 6 5 6 8 9 8 7 7 8 10 11 nan
nan 8 8 9 10 8 7 5 6 9 10 10 9 8 8 10 11 9 9 9 8 6 9 12 12 8 6 8 9 10 10 10 10 8 8 9 9 9 8 8 9 8 7 7 7 9 11 13 12 10 8 5 6 11 13 11 8 6 5 6 8 9 8 7 6 8 10 11 nan
nan 8 8 10 9 7 6 4 4 9 11 10 8 8 8 10 11 9 9 8 7 7 9 11 10 9 10 11 11 11 10 10 10 9 8 8 9 9 7 8 8 7 6 7 9 11 11 12 11 10 8 7 7 10 11 10 9 8 7 7 7 8 7 6 7 9 10 10 nan
nan 9 8 9 8 5 6 4 4 9 12 9 8 8 8 10 11 10 10 9 8 7 8 9 9 10 12 13 12 12 10 10 10 9 8 8 8 8 7 7 7 7 7 8 9 11 12 12 10 9 9 8 8 8 9 10 10 9 9 9 8 7 7 7 7 8 9 8 nan
nan 8 8 9 8 5 5 3 4 10 11 10 9 8 7 9 11 11 11 9 7 8 11 10 8 9 12 13 13 12 10 10 9 8 7 7 8 8 7 7 7 7 7 8 8 8 11 12 11 11 10 9 8 8 9 10 10 10 10 10 9 8 8 8 7 8 8 8 nan
nan 8 8 9 8 6 4 2 4 9 11 11 10 8 7 9 11 13 12 8 7 10 13 10 7 9 11 12 11 10 10 10 9 8 8 9 9 8 8 7 7 7 8 8 8 8 8 10 12 12 11 10 9 9 9 9 10 10 10 10 10 9 9 9 7 7 7 7 nan
nan 9 9 9 8 6 4 3 5 9 11 11 9 8 8 9 11 12 12 10 10 12 12 8 7 10 11 10 8 8 9 10 10 9 9 10 10 9 8 8 8 8 9 9 9 9 9 9 9 10 10 9 9 10 10 10 10 10 10 10 9 10 9 8 7 7 6 8 nan
nan 9 9 9 8 6 6 5 6 9 11 10 9 9 10 11 11 10 11 11 12 13 11 8 7 10 12 10 8 8 8 11 13 10 9 10 10 10 9 9 9 9 9 9 9 9 9 9 9 8 8 8 9 9 10 10 10 10 10 9 9 9 9 8 7 7 7 8 nan
nan 9 9 9 8 7 7 6 7 9 10 11 11 11 11 11 11 10 10 11 12 12 11 8 8 9 11 10 8 7 6 10 14 11 9 10 11 10 10 10 9 9 9 9 9 10 9 9 9 8 8 8 8 8 9 9 10 10 9 9 9 9 9 8 8 7 7 9 nan
nan 9 9 9 9 8 8 8 9 11 11 12 12 11 10 11 11 11 11 11 11 12 11 9 9 9 10 9 8 6 5 10 13 11 10 10 10 10 10 9 9 9 9 10 10 10 10 9 8 8 8 8 8 7 7 8 8 9 8 8 9 9 10 10 9 9 8 9 nan
nan 9 10 10 10 9 9 10 12 13 13 12 11 10 10 10 11 11 11 11 12 12 11 10 10 10 10 9 8 6 6 9 13 13 11 10 10 10 10 10 10 9 9 10 10 10 10 9 8 8 8 8 8 8 8 7 7 7 7 8 8 9 10 10 10 10 9 9 nan
nan 10 10 11 12 11 10 11 12 13 12 12 11 11 11 10 10 11 11 12 13 12 9 9 11 12 11 10 9 8 8 9 12 13 12 11 11 11 10 11 11 9 7 8 10 10 9 8 8 8 8 8 9 8 8 7 7 7 7 7 7 7 8 9 10 10 10 10 nan
nan 10 9 12 14 12 11 11 12 12 12 11 11 11 10 10 10 11 12 12 12 11 8 9 12 13 12 11 11 11 11 11 9 8 11 12 11 11 9 9 9 7 6 10 14 12 8 7 9 8 8 8 9 9 9 8 8 8 8 7 6 6 6 8 9 10 10 10 nan
nan 10 9 12 14 12 11 11 11 11 11 10 11 10 10 10 10 11 11 11 10 10 9 10 12 12 12 11 12 12 12 10 8 7 9 10 10 9 8 7 7 8 10 19 23 15 7 5 7 8 8 9 10 9 9 9 11 9 9 8 6 6 6 7 7 8 9 10 nan
nan 11 11 12 13 12 12 11 11 10 10 10 11 11 10 10 10 11 11 10 9 10 10 10 10 11 10 10 12 11 10 9 10 10 9 8 8 7 7 7 7 9 16 26 24 14 8 5 4 4 5 8 10 9 7 8 11 11 10 9 8 7 7 6 7 7 7 8 nan
nan 11 11 13 14 12 11 10 11 11 11 11 11 10 9 9 11 12 11 9 9 9 9 9 10 10 7 9 13 11 8 9 12 11 10 9 9 7 6 6 7 12 23 28 20 12 8 6 3 1 1 6 10 8 7 9 10 11 10 10 9 9 9 8 7 7 6 7 nan
nan 12 12 13 13 11 10 11 12 12 12 11 11 10 11 11 12 11 10 9 8 7 6 7 8 7 7 12 14 12 10 10 11 11 10 11 10 8 6 6 10 18 27 26 15 10 8 7 5 3 0 3 6 8 10 10 9 8 9 10 10 10 9 8 8 8 7 6 nan
nan 12 13 12 11 10 10 11 12 11 11 10 11 11 12 12 11 11 10 10 7 5 4 6 8 9 13 15 13 12 10 10 10 10 12 13 10 9 9 9 14 22 29 22 11 9 8 8 7 7 5 2 3 8 10 10 9 9 9 11 11 10 9 9 9 9 8 8 nan
nan 12 12 11 10 10 11 11 11 11 10 11 12 12 11 11 11 11 10 8 4 4 7 10 12 15 16 13 10 10 9 9 11 12 13 12 9 10 11 10 14 23 29 21 9 9 8 8 8 8 7 3 2 7 10 11 10 11 10 11 11 11 10 10 10 9 8 8 nan
nan 12 12 11 10 10 10 11 12 12 11 13 14 12 10 10 10 8 7 5 5 8 10 13 16 15 12 11 11 11 10 11 12 13 13 12 10 8 8 10 14 22 30 21 8 8 8 7 7 6 6 2 1 6 10 11 11 11 11 12 11 11 10 10 10 9 9 8 nan
nan 12 12 11 10 10 11 12 12 12 13 14 12 11 10 9 8 8 8 8 9 10 10 13 14 11 10 10 11 13 13 12 12 12 13 11 8 6 9 10 14 22 29 20 8 8 8 6 5 4 4 0 1 7 10 10 10 11 12 12 11 10 9 9 10 11 10 9 nan
nan 12 12 11 10 10 11 12 12 13 12 12 10 10 9 8 8 9 10 10 10 10 10 13 11 8 8 7 9 11 11 11 12 12 12 9 8 8 8 7 13 23 28 19 8 8 8 6 5 4 3 -1 0 6 8 9 9 10 11 11 11 11 10 10 10 10 10 9 nan
nan 12 11 10 10 10 11 11 12 12 11 10 10 10 9 8 8 8 8 9 9 10 11 12 10 8 8 9 10 9 9 11 11 11 11 10 10 8 6 6 15 26 26 15 8 8 8 7 5 4 1 -3 -1 5 8 9 9 10 11 11 11 11 11 10 10 10 11 10 nan
nan 10 10 10 10 10 10 11 11 11 11 9 9 9 9 9 9 7 8 9 10 11 12 12 11 10 11 12 11 11 12 11 10 10 11 10 9 7 5 6 17 28 23 12 8 8 8 7 5 2 -2 -4 1 7 9 8 9 10 10 10 10 10 10 10 10 11 11 11 nan
nan 10 9 9 9 9 10 10 10 10 10 9 9 8 8 9 8 8 10 10 10 12 12 12 12 12 12 11 11 11 11 10 9 10 10 10 8 6 6 7 16 25 19 11 8 8 8 7 4 0 -4 -4 4 8 9 8 9 9 9 9 9 10 10 10 10 11 11 11 nan
nan 10 9 8 8 9 9 9 10 10 10 9 7 7 7 6 6 9 11 11 10 11 11 11 11 10 10 9 10 11 13 12 10 11 10 8 7 7 6 7 13 20 18 12 8 8 8 6 2 -3 -5 -1 6 8 8 7 8 9 8 8 9 10 10 11 11 11 11 11 nan
nan 10 9 8 8 9 9 10 11 10 9 7 6 7 7 6 7 10 12 11 10 10 8 9 10 9 10 11 12 13 14 13 12 11 9 8 7 7 7 6 9 15 20 16 10 8 7 5 0 -3 -4 2 7 7 7 7 8 9 8 8 8 9 10 11 11 11 12 12 nan
nan 11 10 9 9 10 11 11 11 10 8 7 8 10 8 7 9 12 12 11 10 10 9 9 10 11 11 11 10 10 11 12 12 11 9 8 10 9 7 5 8 13 22 20 12 8 7 6 2 -2 -3 2 6 6 7 8 9 8 8 7 8 9 10 10 11 11 11 13 nan
nan 12 12 10 10 11 11 11 10 9 9 9 10 8 7 8 11 12 11 10 11 11 10 11 11 11 12 10 7 8 8 9 11 11 11 12 12 11 6 4 9 13 22 21 13 8 6 6 3 -1 -5 -0 7 7 8 9 8 7 7 7 8 9 9 9 10 10 10 12 nan
nan nan nan nan nan nan nan nan nan nan nan nan nan nan nan nan nan nan nan nan nan nan nan nan nan nan nan nan nan nan nan nan nan nan nan nan nan nan nan nan nan nan nan nan nan nan nan nan nan nan nan nan nan nan nan nan nan nan nan nan nan nan nan nan nan nan nan nan nan
CAPE
nan nan nan nan nan nan nan nan nan nan nan nan nan nan nan nan nan nan nan nan nan nan nan nan nan nan nan nan nan nan nan nan nan nan nan nan nan nan nan nan nan nan nan nan nan nan nan nan nan nan nan nan nan nan nan nan nan nan nan nan nan nan nan nan nan nan nan nan nan
nan nan nan nan nan nan nan nan nan nan nan nan nan nan nan nan nan nan nan nan nan nan nan nan nan nan nan nan nan nan nan nan nan nan nan nan nan nan nan nan nan nan nan nan nan nan nan nan nan nan nan nan nan nan nan nan nan nan nan nan nan nan nan nan nan nan nan nan nan
nan nan nan nan nan nan nan nan nan nan nan nan nan nan nan nan nan nan nan nan nan nan nan nan nan nan nan nan nan nan nan nan nan nan nan nan nan nan nan nan nan nan nan nan nan nan nan nan nan nan nan nan nan nan nan nan nan nan nan nan nan nan nan nan nan nan nan nan nan
nan nan nan nan nan nan nan nan nan nan nan nan nan nan nan nan nan nan nan nan nan nan nan nan nan nan nan nan nan nan nan nan nan nan nan nan nan nan nan nan nan nan nan nan nan nan nan nan nan nan nan nan nan nan nan nan nan nan nan nan nan nan nan nan nan nan nan nan nan
nan nan nan nan nan nan nan nan nan nan nan nan nan nan nan nan nan nan nan nan nan nan nan nan nan nan nan nan nan nan nan nan nan nan nan nan nan nan nan nan nan nan nan nan nan nan nan nan nan nan nan nan nan nan nan nan nan nan nan nan nan nan nan nan nan nan nan nan nan
nan nan nan nan nan nan nan nan nan nan nan nan nan nan nan nan nan nan nan nan nan nan nan nan nan nan nan nan nan nan nan nan nan nan nan nan nan nan nan nan nan nan nan nan nan nan nan nan nan nan nan nan nan nan nan nan nan nan nan nan nan nan nan nan nan nan nan nan nan
nan nan nan nan nan nan nan nan nan nan nan nan nan nan nan nan nan nan nan nan nan nan nan nan nan nan nan nan nan nan nan nan nan nan nan nan nan nan nan nan nan nan nan nan nan nan nan nan nan nan nan nan nan nan nan nan nan nan nan nan nan nan nan nan nan nan nan nan nan
nan nan nan nan nan nan nan nan nan nan nan nan nan nan nan nan nan nan nan nan nan nan nan nan nan nan nan nan nan nan nan nan nan nan nan nan nan nan nan nan nan nan nan nan nan nan nan nan nan nan nan nan nan nan nan nan nan nan nan nan nan nan nan nan nan nan nan nan nan
nan nan nan nan nan nan nan nan nan nan nan nan nan nan nan nan nan nan nan nan nan nan nan nan nan nan nan nan nan nan nan nan nan nan nan nan nan nan nan nan nan nan nan nan nan nan nan nan nan nan nan nan nan nan nan nan nan nan nan nan nan nan nan nan nan nan nan nan nan
nan nan nan nan nan nan nan nan nan nan nan nan nan nan nan nan nan nan nan nan nan nan nan nan nan nan nan nan nan nan nan nan nan nan nan nan nan nan nan nan nan nan nan nan nan nan nan nan nan nan nan nan nan nan nan nan nan nan nan nan nan nan nan nan nan nan nan nan nan
nan nan nan nan nan nan nan nan nan nan nan nan nan nan nan nan nan nan nan nan nan nan nan nan nan nan nan nan nan nan nan nan nan nan nan nan nan nan nan nan nan nan nan nan nan nan nan nan nan nan nan nan nan nan nan nan nan nan nan nan nan nan nan nan nan nan nan nan nan
nan nan nan nan nan nan nan nan nan nan nan nan nan nan nan nan nan nan nan nan nan nan nan nan nan nan nan nan nan nan nan nan nan nan nan nan nan nan nan nan nan nan nan nan nan nan nan nan nan nan nan nan nan nan nan nan nan nan nan nan nan nan nan nan nan nan nan nan nan
nan nan nan nan nan nan nan nan nan nan nan nan nan nan nan nan nan nan nan nan nan nan nan nan nan nan nan nan nan nan nan nan nan nan nan nan nan nan nan nan nan nan nan nan nan nan nan nan nan nan nan nan nan nan nan nan nan nan nan nan nan nan nan nan nan nan nan nan nan
nan nan nan nan nan nan nan nan nan nan nan nan nan nan nan nan nan nan nan nan nan nan nan nan nan nan nan nan nan nan nan nan nan nan nan nan nan nan nan nan nan nan nan nan nan nan nan nan nan nan nan nan nan nan nan nan nan nan nan nan nan nan nan nan nan nan nan nan nan
nan nan nan nan nan nan nan nan nan nan nan nan nan nan nan nan nan nan nan nan nan nan nan nan nan nan nan nan nan nan nan nan nan nan nan nan nan nan nan nan nan nan nan nan nan nan nan nan nan nan nan nan nan nan nan nan nan nan nan nan nan nan nan nan nan nan nan nan nan
nan nan nan nan nan nan nan nan nan nan nan nan nan nan nan nan nan nan nan nan nan nan nan nan nan nan nan nan nan nan nan nan nan nan nan nan nan nan nan nan nan nan nan nan nan nan nan nan nan nan nan nan nan nan nan nan nan nan nan nan nan nan nan nan nan nan nan nan nan
nan nan nan nan nan nan nan nan nan nan nan nan nan nan nan nan nan nan nan nan nan nan nan nan nan nan nan nan nan nan nan nan nan nan nan nan nan nan nan nan nan nan nan nan nan nan nan nan nan nan nan nan nan nan nan nan nan nan nan nan nan nan nan nan nan nan nan nan nan
nan nan nan nan nan nan nan nan nan nan nan nan nan nan nan nan nan nan nan nan nan nan nan nan nan nan nan nan nan nan nan nan nan nan nan nan nan nan nan nan nan nan nan nan nan nan nan nan nan nan nan nan nan nan nan nan nan nan nan nan nan nan nan nan nan nan nan nan nan
nan nan nan nan nan nan nan nan nan nan nan nan nan nan nan nan nan nan nan nan nan nan nan nan nan nan nan nan nan nan nan nan nan nan nan nan nan nan nan nan nan nan nan nan nan nan nan nan nan nan nan nan nan nan nan nan nan nan nan nan nan nan nan nan nan nan nan nan nan
nan nan nan nan nan nan nan nan nan nan nan nan nan nan nan nan nan nan nan nan nan nan nan nan nan nan nan nan nan nan nan nan nan nan nan nan nan nan nan nan nan nan nan nan nan nan nan nan nan nan nan nan nan nan nan nan nan nan nan nan nan nan nan nan nan nan nan nan nan
nan nan nan nan nan nan nan nan nan nan nan nan nan nan nan nan nan nan nan nan nan nan nan nan nan nan nan nan nan nan nan nan nan nan nan nan nan nan nan nan nan nan nan nan nan nan nan nan nan nan nan nan nan nan nan nan nan nan nan nan nan nan nan nan nan nan nan nan nan
nan nan nan nan nan nan nan nan nan nan nan nan nan nan nan nan nan nan nan nan nan nan nan nan nan nan nan nan nan nan nan nan nan nan nan nan nan nan nan nan nan nan nan nan nan nan nan nan nan nan nan nan nan nan nan nan nan nan nan nan nan nan nan nan nan nan nan nan nan
nan nan nan nan nan nan nan nan nan nan nan nan nan nan nan nan nan nan nan nan nan nan nan nan nan nan nan nan nan nan nan nan nan nan nan nan nan nan nan nan nan nan nan nan nan nan nan nan nan nan nan nan nan nan nan nan nan nan nan nan nan nan nan nan nan nan nan nan nan
nan nan nan nan nan nan nan nan nan nan nan nan nan nan nan nan nan nan nan nan nan nan nan nan nan nan nan nan nan nan nan nan nan nan nan nan nan nan nan nan nan nan nan nan nan nan nan nan nan nan nan nan nan nan nan nan nan nan nan nan nan nan nan nan nan nan nan nan nan
nan nan nan nan nan nan nan nan nan nan nan nan nan nan nan nan nan nan nan nan nan nan nan nan nan nan nan nan nan nan nan nan nan nan nan nan nan nan nan nan nan nan nan nan nan nan nan nan nan nan nan nan nan nan nan nan nan nan nan nan nan nan nan nan nan nan nan nan nan
nan nan nan nan nan nan nan nan nan nan nan nan nan nan nan nan nan nan nan nan nan nan nan nan nan nan nan nan nan nan nan nan nan nan nan nan nan nan nan nan nan nan nan nan nan nan nan nan nan nan nan nan nan nan nan nan nan nan nan nan nan nan nan nan nan nan nan nan nan
nan nan nan nan nan nan nan nan nan nan nan nan nan nan nan nan nan nan nan nan nan nan nan nan nan nan nan nan nan nan nan nan nan nan nan nan nan nan nan nan nan nan nan nan nan nan nan nan nan nan nan nan nan nan nan nan nan nan nan nan nan nan nan nan nan nan nan nan nan
nan nan nan nan nan nan nan nan nan nan nan nan nan nan nan nan nan nan nan nan nan nan nan nan nan nan nan nan nan nan nan nan nan nan nan nan nan nan nan nan nan nan nan nan nan nan nan nan nan nan nan nan nan nan nan nan nan nan nan nan nan nan nan nan nan nan nan nan nan
nan nan nan nan nan nan nan nan nan nan nan nan nan nan nan nan nan nan nan nan nan nan nan nan nan nan nan nan nan nan nan nan nan nan nan nan nan nan nan nan nan nan nan nan nan nan nan nan nan nan nan nan nan nan nan nan nan nan nan nan nan nan nan nan nan nan nan nan nan
nan nan nan nan nan nan nan nan nan nan nan nan nan nan nan nan nan nan nan nan nan nan nan nan nan nan nan nan nan nan nan nan nan nan nan nan nan nan nan nan nan nan nan nan nan nan nan nan nan nan nan nan nan nan nan nan nan nan nan nan nan nan nan nan nan nan nan nan nan
nan nan nan nan nan nan nan nan nan nan nan nan nan nan nan nan nan nan nan nan nan nan nan nan nan nan nan nan nan nan nan nan nan nan nan nan nan nan nan nan nan nan nan nan nan nan nan nan nan nan nan nan nan nan nan nan nan nan nan nan nan nan nan nan nan nan nan nan nan
nan nan nan nan nan nan nan nan nan nan nan nan nan nan nan nan nan nan nan nan nan nan nan nan nan nan nan nan nan nan nan nan nan nan nan nan nan nan nan nan nan nan nan nan nan nan nan nan nan nan nan nan nan nan nan nan nan nan nan nan nan nan nan nan nan nan nan nan nan
nan nan nan nan nan nan nan nan nan nan nan nan nan nan nan nan nan nan nan nan nan nan nan nan nan nan nan nan nan nan nan nan nan nan nan nan nan nan nan nan nan nan nan nan nan nan nan nan nan nan nan nan nan nan nan nan nan nan nan nan nan nan nan nan nan nan nan nan nan
nan nan nan nan nan nan nan nan nan nan nan nan nan nan nan nan nan nan nan nan nan nan nan nan nan nan nan nan nan nan nan nan nan nan nan nan nan nan nan nan nan nan nan nan nan nan nan nan nan nan nan nan nan nan nan nan nan nan nan nan nan nan nan nan nan nan nan nan nan
nan nan nan nan nan nan nan nan nan nan nan nan nan nan nan nan nan nan nan nan nan nan nan nan nan nan nan nan nan nan nan nan nan nan nan nan nan nan nan nan nan nan nan nan nan nan nan nan nan nan nan nan nan nan nan nan nan nan nan nan nan nan nan nan nan nan nan nan nan
nan nan nan nan nan nan nan nan nan nan nan nan nan nan nan nan nan nan nan nan nan nan nan nan nan nan nan nan nan nan nan nan nan nan nan nan nan nan nan nan nan nan nan nan nan nan nan nan nan nan nan nan nan nan nan nan nan nan nan nan nan nan nan nan nan nan nan nan nan
nan nan nan nan nan nan nan nan nan nan nan nan nan nan nan nan nan nan nan nan nan nan nan nan nan nan nan nan nan nan nan nan nan nan nan nan nan nan nan nan nan nan nan nan nan nan nan nan nan nan nan nan nan nan nan nan nan nan nan nan nan nan nan nan nan nan nan nan nan
nan nan nan nan nan nan nan nan nan nan nan nan nan nan nan nan nan nan nan nan nan nan nan nan nan nan nan nan nan nan nan nan nan nan nan nan nan nan nan nan nan nan nan nan nan nan nan nan nan nan nan nan nan nan nan nan nan nan nan nan nan nan nan nan nan nan nan nan nan
nan nan nan nan nan nan nan nan nan nan nan nan nan nan nan nan nan nan nan nan nan nan nan nan nan nan nan nan nan nan nan nan nan nan nan nan nan nan nan nan nan nan nan nan nan nan nan nan nan nan nan nan nan nan nan nan nan nan nan nan nan nan nan nan nan nan nan nan nan
nan nan nan nan nan nan nan nan nan nan nan nan nan nan nan nan nan nan nan nan nan nan nan nan nan nan nan nan nan nan nan nan nan nan nan nan nan nan nan nan nan nan nan nan nan nan nan nan nan nan nan nan nan nan nan nan nan nan nan nan nan nan nan nan nan nan nan nan nan
nan nan nan nan nan nan nan nan nan nan nan nan nan nan nan nan nan nan nan nan nan nan nan nan nan nan nan nan nan nan nan nan nan nan nan nan nan nan nan nan nan nan nan nan nan nan nan nan nan nan nan nan nan nan nan nan nan nan nan nan nan nan nan nan nan nan nan nan nan